Location: Geremba
(10.4250°N, 67.2394°W)
Time: 00:43:57
(UTC+00:00)

ATLAS 5 CENTAUR R/B - Pass Details

Date: 23 May 2024
Orbit: 419 x 1168 km, 63.3° (Epoch: 15 June)

Event Time Altitude Azimuth Distance (km) Brightness Sun altitude
Rises 01:06:34 0° 321° (NW) 3,535 6.4 -32.0°
Reaches altitude 10° 01:09:04 10° 314° (NW) 2,697 5.6 -32.5°
Maximum altitude 01:15:06 41° 247° (WSW) 1,509 3.6 -33.8°
Enters shadow 01:16:04 39° 227° (SW) 1,573 3.6 -34.0°
